STARLINK-2018 (47640 NORAD) Tracking and Keplerian Element Data
This shows tracking and keplerian element data for the satellite.
Feedback or suggestion? Click here.
Element | Value |
Catalog | 47640 |
Name | STARLINK-2018 |
Epoch Orbit | 989 |
Epoch Day | 106.16668981 |
Epoch Year | 2021 |
RAAN | 180.5969 |
Inclination | 53.0519 |
Eccentricity | 0.0001095 |
Argument of Perigee | 74.4199 |
Mean Anonmoly | 4.2613 |
Mean Motion | 15.06389548 |
Decay Rate | 0.00030683 |
L1 | 1 47640U 21012W 21106.16668981 .00030683 00000-0 20704-2 0 9997 |
L2 | 2 47640 53.0519 180.5969 0001095 74.4199 4.2613 15.06389548 9894 |
Live tracking and technical data element details for STARLINK-2018 (NORAD 47640). STARLINK-2018 can be tracked NOW for your location showing map with azimuth and elevation plus other details from your city location.
Track the satellite on the map from your city or location and see movement details for azimuth, elevation, latitude, longitude, range, height, and movement on the map or in text.
IsCatalogInMostPopularTable: catalog: 47640, numindb: 18
Update: records affected: 1
GetName: 47640 STARLINK-2018
Hit Count: updated at: Fri, 16 Apr 2021 11:17:20 GMT